[[{"header":{"parameterUnit":"m.s-1","parameterCategory":1,"la1":30.2991,"la2":30.254,"lo1":-89.0895,"lo2":-89.0444,"dy":0.0017,"dx":0.0017,"nx":28,"ny":28,"refTime":"2024-06-22T03:00:00:Z","depth":0,"parameterNumber":2,"parameterNumberName":"U-component_of_WINDS"},"data":[0,0,0,0,0,0,0,0,0,0,0,0,0,0,0,0,0,0,0,0,0,0,0,0,0,0,0,0,0,0,0,0,0,0,0,0,0,0,0,0,0,0,0,0,0,0,0,0,0,0,0,0,0,0,0,0,0,0,0.6184,0.6184,0,0.6233,0.6234,0.6234,0.6291,0.6292,0.6293,0.6294,0.6343,0.6344,0.6344,0,0,0,0,0,0,0,0,0,0,0,0,0,0.6136,0.6137,0.6184,0.6184,0.6185,0.6233,0.6234,0.6235,0.6291,0.6292,0.6293,0.6294,0.6343,0.6343,0.6344,0,0,0,0,0,0,0,0,0,0,0,0,0,0.6168,0.6137,0.6183,0.6219,0.6222,0.6233,0.6234,0.6235,0.6291,0.6292,0.6293,0.6294,0.6343,0.6343,0.6344,0.6324,0,0,0.6347,0.6347,0,0,0,0,0,0,0,0,0.6167,0.617,0.6213,0.6216,0.622,0.6257,0.6236,0.6265,0.629,0.6265,0.6294,0.6295,0.6313,0.6317,0.6323,0.6326,0.6328,0.6347,0.6347,0.6348,0.6348,0,0,0,0,0,0,0,0.6164,0.6168,0.6203,0.6213,0.6218,0.6232,0.6238,0.6241,0.6281,0.6267,0.6271,0.6276,0.6316,0.6322,0.6325,0.6329,0.6347,0.6347,0.6348,0.6348,0.6317,0.6316,0,0,0,0,0,0,0.6157,0.6166,0.6202,0.6205,0.6196,0.6232,0.6238,0.6244,0.6281,0.6288,0.6275,0.6279,0.632,0.6324,0.6327,0.6305,0.6348,0.6348,0.6349,0.6319,0.6317,0.6316,0,0,0,0,0,0,0.6156,0.616,0.62,0.6187,0.6193,0.6231,0.6237,0.6244,0.6251,0.6288,0.6295,0.6275,0.6321,0.6326,0.6324,0.6307,0.6349,0.6349,0.632,0.6318,0.6316,0.6261,0,0,0,0,0,0,0.6154,0.6159,0.6151,0.6186,0.6193,0.6196,0.6236,0.6245,0.6253,0.6258,0.6289,0.6295,0.6323,0.6323,0.6325,0.6309,0.635,0.6322,0.6319,0.6317,0.6264,0.6257,0.6251,0,0,0,0,0,0.6152,0.6134,0.6151,0.6155,0.6185,0.6195,0.6199,0.6231,0.6251,0.6244,0.6267,0.6294,0.6309,0.6322,0.6325,0.6309,0.6323,0.632,0.6317,0.6267,0.6259,0.6251,0,0,0,0,0,0,0.6095,0.6139,0.6158,0.615,0.6169,0.6205,0.6197,0.6221,0.6234,0.6238,0.6277,0.6284,0.6278,0.6294,0.6307,0.6291,0.632,0.6317,0.6281,0.6273,0.6267,0.6262,0.6351,0,0,0,0,0,0.6082,0.6087,0.6125,0.6114,0.6122,0.6158,0.6163,0.6187,0.6207,0.6215,0.6238,0.6257,0.6266,0.627,0.6281,0.6267,0.6275,0.6258,0.6251,0.6246,0.6243,0.6237,0.6229,0.6306,0.6306,0.6306,0,0,0.6054,0.6079,0.6079,0.6103,0.612,0.6124,0.6164,0.6166,0.6169,0.6215,0.6215,0.6233,0.6256,0.6249,0.6246,0.6262,0.6224,0.6242,0.6237,0.6238,0.6233,0.6226,0.6219,0.6304,0.6305,0.6305,0,0,0.6005,0.6025,0.6018,0.6034,0.606,0.6084,0.6082,0.6114,0.6128,0.6129,0.6163,0.6168,0.6182,0.6197,0.6206,0.6164,0.6189,0.6166,0.6131,0.6125,0.6119,0.6113,0.6097,0.6091,0.6163,0.6163,0.6163,0,0.5967,0.5975,0.6011,0.6011,0.6021,0.6063,0.6056,0.607,0.6097,0.6103,0.612,0.6139,0.6157,0.6154,0.6143,0.615,0.6149,0.6162,0.6117,0.6112,0.6108,0.6093,0.6087,0.616,0.6161,0.6161,0.6161,0,0.5927,0.5932,0.5923,0.5948,0.5957,0.5954,0.5989,0.5993,0.6016,0.6038,0.6038,0.6062,0.6078,0.6079,0.6101,0.6078,0.6087,0.611,0.6139,0.6097,0.6083,0.6078,0.6156,0.6157,0.6158,0.6159,0,0,0.5842,0.5889,0.5885,0.5897,0.5928,0.5932,0.5931,0.5947,0.5949,0.5967,0.5966,0.5978,0.5999,0.601,0.6035,0.6029,0.5993,0.6053,0.6054,0.604,0.5968,0.595,0.5943,0.601,0.6009,0.6009,0.5966,0,0.5798,0.5799,0.5831,0.5822,0.5827,0.5868,0.5866,0.5885,0.5906,0.5913,0.5936,0.5943,0.5971,0.5978,0.5974,0.5998,0.5979,0.6002,0.6009,0.6009,0.6001,0.5936,0.5916,0.5875,0.5961,0.596,0.596,0,0.5747,0.5761,0.5753,0.5785,0.5788,0.5786,0.5803,0.581,0.5832,0.5847,0.586,0.5888,0.5888,0.5917,0.5918,0.5932,0.5938,0.595,0.5949,0.595,0.5981,0.5934,0.5863,0.5856,0.5952,0.5953,0.5953,0,0.5684,0.5703,0.57,0.5709,0.5747,0.5744,0.576,0.5784,0.5791,0.5806,0.5811,0.5826,0.5833,0.5844,0.5875,0.5893,0.5872,0.5904,0.5884,0.5883,0.5877,0.5876,0.5804,0.5882,0.5882,0.5882,0.5882,0,0.5631,0.5624,0.5672,0.567,0.5664,0.5701,0.5694,0.5713,0.5734,0.5736,0.5773,0.5774,0.5816,0.5822,0.5846,0.5843,0.5846,0.5858,0.5864,0.5854,0.5852,0.5857,0.586,0.5881,0.5881,0.5881,0.5882,0,0.556,0.5592,0.5592,0.5627,0.5636,0.563,0.566,0.566,0.5683,0.5686,0.5688,0.5725,0.5734,0.5766,0.5783,0.5799,0.5788,0.5801,0.578,0.5784,0.5762,0.5763,0.5689,0.5681,0.5765,0.5764,0.5764,0,0.5523,0.5518,0.5554,0.5558,0.5572,0.5579,0.5587,0.5624,0.5631,0.5656,0.5652,0.5665,0.5676,0.5688,0.5716,0.5729,0.5742,0.5715,0.5744,0.5733,0.574,0.5739,0.5739,0.5708,0.5707,0.5706,0.5705,0,0.5453,0.547,0.548,0.5496,0.5504,0.5518,0.5535,0.5536,0.5578,0.5583,0.5593,0.5602,0.562,0.563,0.5648,0.5664,0.5691,0.5696,0.5692,0.5681,0.5668,0.5674,0.5761,0.5697,0.5698,0.5699,0.5699,0.5699,0.5397,0.5395,0.542,0.543,0.5447,0.5461,0.5462,0.5486,0.5495,0.5512,0.5534,0.5541,0.5564,0.559,0.5604,0.561,0.5625,0.5619,0.5617,0.5615,0.5609,0.5669,0.5613,0.5613,0.5614,0.5614,0.5614,0,0.5329,0.5347,0.5356,0.5378,0.5386,0.5412,0.5432,0.5436,0.5442,0.5461,0.5472,0.5483,0.5494,0.5523,0.5537,0.5536,0.5548,0.5538,0.5538,0.5541,0.5596,0.5597,0.5527,0.5527,0.5527,0.5527,0.5527,0.5527,0.5294,0.5292,0.5311,0.5317,0.5335,0.5343,0.5351,0.5365,0.538,0.5391,0.5401,0.542,0.5443,0.5459,0.547,0.5478,0.5481,0.5466,0.5478,0.5529,0.5537,0.5545,0.5546,0.5467,0.5467,0.5422,0.5422,0.5422]},{"header":{"parameterUnit":"m.s-1","parameterCategory":1,"la1":30.2991,"la2":30.254,"lo1":-89.0895,"lo2":-89.0444,"dy":0.0017,"dx":0.0017,"nx":28,"ny":28,"refTime":"2024-06-22T03:00:00:Z","depth":0,"parameterNumber":3,"parameterNumberName":"V-component_of_WINDS"},"data":[0,0,0,0,0,0,0,0,0,0,0,0,0,0,0,0,0,0,0,0,0,0,0,0,0,0,0,0,0,0,0,0,0,0,0,0,0,0,0,0,0,0,0,0,0,0,0,0,0,0,0,0,0,0,0,0,0,0,-0.1296,-0.1297,0,-0.1342,-0.1342,-0.1343,-0.1372,-0.1372,-0.1372,-0.1372,-0.1419,-0.142,-0.1421,0,0,0,0,0,0,0,0,0,0,0,0,0,-0.1234,-0.1235,-0.1296,-0.1297,-0.1297,-0.1342,-0.1342,-0.1343,-0.1372,-0.1372,-0.1372,-0.1372,-0.1418,-0.142,-0.1421,0,0,0,0,0,0,0,0,0,0,0,0,0,-0.1269,-0.1236,-0.1296,-0.1317,-0.1319,-0.1342,-0.1342,-0.1343,-0.1372,-0.1372,-0.1372,-0.1372,-0.1418,-0.1419,-0.1421,-0.1426,0,0,-0.1426,-0.1427,0,0,0,0,0,0,0,0,-0.1267,-0.1271,-0.1313,-0.1316,-0.1318,-0.1351,-0.1338,-0.1371,-0.1372,-0.1352,-0.1372,-0.1372,-0.1396,-0.1399,-0.1407,-0.1428,-0.143,-0.1426,-0.1427,-0.1428,-0.1428,0,0,0,0,0,0,0,-0.1264,-0.1269,-0.1314,-0.1314,-0.1317,-0.1324,-0.1329,-0.1344,-0.1372,-0.1354,-0.1356,-0.1361,-0.1397,-0.1406,-0.1409,-0.1431,-0.1426,-0.1428,-0.1429,-0.1429,-0.1458,-0.1458,0,0,0,0,0,0,-0.1258,-0.1267,-0.1313,-0.1316,-0.1293,-0.1325,-0.1331,-0.134,-0.1372,-0.1377,-0.136,-0.1362,-0.1403,-0.1407,-0.141,-0.1418,-0.1428,-0.1429,-0.143,-0.1458,-0.1458,-0.1458,0,0,0,0,0,0,-0.1257,-0.1262,-0.1311,-0.1292,-0.1299,-0.1326,-0.1336,-0.1341,-0.135,-0.1377,-0.1382,-0.1364,-0.1403,-0.1408,-0.1422,-0.142,-0.143,-0.1432,-0.1459,-0.1458,-0.1458,-0.1434,0,0,0,0,0,0,-0.1255,-0.1262,-0.1264,-0.1292,-0.13,-0.1322,-0.1336,-0.1342,-0.1352,-0.1355,-0.1382,-0.1386,-0.1404,-0.1419,-0.1424,-0.1423,-0.1433,-0.1459,-0.1458,-0.1458,-0.1435,-0.1433,-0.1431,0,0,0,0,0,-0.1253,-0.1255,-0.1264,-0.1269,-0.1303,-0.1321,-0.1326,-0.1346,-0.1352,-0.1355,-0.1372,-0.1386,-0.142,-0.1421,-0.1425,-0.1425,-0.1459,-0.1458,-0.1458,-0.1436,-0.1433,-0.1431,0,0,0,0,0,0,-0.1226,-0.1259,-0.1269,-0.1281,-0.1298,-0.1326,-0.133,-0.1343,-0.1359,-0.136,-0.1384,-0.139,-0.1402,-0.1415,-0.1415,-0.1432,-0.1441,-0.1441,-0.1423,-0.142,-0.1418,-0.1415,-0.1434,0,0,0,0,0,-0.1222,-0.1234,-0.1262,-0.127,-0.1278,-0.1302,-0.1311,-0.1325,-0.1344,-0.1352,-0.137,-0.1388,-0.1403,-0.1413,-0.1428,-0.1437,-0.1444,-0.144,-0.1438,-0.1436,-0.1436,-0.1442,-0.1441,-0.1456,-0.1456,-0.1456,0,0,-0.1213,-0.1232,-0.1238,-0.1265,-0.128,-0.1292,-0.1308,-0.1321,-0.133,-0.1354,-0.1368,-0.1382,-0.1404,-0.1415,-0.1421,-0.1427,-0.1433,-0.1435,-0.1434,-0.1435,-0.1441,-0.144,-0.1438,-0.1456,-0.1456,-0.1456,0,0,-0.1202,-0.1218,-0.1226,-0.1241,-0.1264,-0.128,-0.1282,-0.1308,-0.1319,-0.1333,-0.1351,-0.1363,-0.1388,-0.1403,-0.1413,-0.1409,-0.1421,-0.1413,-0.1402,-0.1408,-0.1407,-0.1406,-0.1404,-0.1403,-0.1413,-0.1413,-0.1413,0,-0.1188,-0.1207,-0.1228,-0.124,-0.1251,-0.1273,-0.1281,-0.1295,-0.1321,-0.1328,-0.1334,-0.1366,-0.1382,-0.1398,-0.1396,-0.1404,-0.1407,-0.141,-0.1405,-0.1405,-0.1404,-0.1403,-0.1402,-0.1412,-0.1412,-0.1412,-0.1412,0,-0.1188,-0.1201,-0.1205,-0.123,-0.1242,-0.1251,-0.1274,-0.1284,-0.1297,-0.1312,-0.1327,-0.1347,-0.1367,-0.1371,-0.1384,-0.1389,-0.1391,-0.1401,-0.1411,-0.1401,-0.14,-0.14,-0.141,-0.141,-0.1411,-0.1411,0,0,-0.1162,-0.1199,-0.12,-0.1212,-0.1239,-0.1249,-0.126,-0.1279,-0.1287,-0.1304,-0.1314,-0.1335,-0.1344,-0.1356,-0.1371,-0.1376,-0.137,-0.1385,-0.1386,-0.1381,-0.1377,-0.1369,-0.1368,-0.1379,-0.1379,-0.1379,-0.1375,0,-0.1156,-0.1176,-0.1196,-0.1209,-0.1221,-0.1243,-0.1252,-0.1269,-0.1284,-0.1297,-0.1314,-0.1328,-0.1339,-0.1346,-0.1352,-0.137,-0.137,-0.137,-0.1388,-0.1389,-0.1382,-0.1368,-0.136,-0.1355,-0.1375,-0.1375,-0.1375,0,-0.1151,-0.1167,-0.1182,-0.1208,-0.1214,-0.1222,-0.1241,-0.1253,-0.1273,-0.1284,-0.1297,-0.1313,-0.1325,-0.1334,-0.1351,-0.1351,-0.136,-0.1369,-0.137,-0.1372,-0.1381,-0.137,-0.1354,-0.1353,-0.1374,-0.1374,-0.1374,0,-0.113,-0.1156,-0.1168,-0.1178,-0.1208,-0.1213,-0.1226,-0.1247,-0.1257,-0.1274,-0.1281,-0.1299,-0.1309,-0.1323,-0.1343,-0.1347,-0.1358,-0.1368,-0.1367,-0.1366,-0.1368,-0.1368,-0.1353,-0.1374,-0.1374,-0.1374,-0.1374,0,-0.1121,-0.1129,-0.1159,-0.1167,-0.1177,-0.1199,-0.1208,-0.1223,-0.1241,-0.1252,-0.1271,-0.1281,-0.1307,-0.1319,-0.1335,-0.1347,-0.1352,-0.136,-0.1365,-0.1359,-0.1358,-0.1365,-0.1365,-0.1374,-0.1374,-0.1374,-0.1374,0,-0.1099,-0.112,-0.1135,-0.1162,-0.1169,-0.1175,-0.1199,-0.1207,-0.1223,-0.1236,-0.1241,-0.1266,-0.1282,-0.1303,-0.1326,-0.1337,-0.1347,-0.1353,-0.134,-0.1342,-0.134,-0.134,-0.1329,-0.1329,-0.1349,-0.1349,-0.1349,0,-0.1092,-0.1098,-0.1127,-0.1135,-0.1148,-0.1161,-0.1172,-0.1194,-0.1205,-0.1228,-0.1234,-0.1251,-0.1266,-0.1291,-0.1311,-0.1329,-0.1336,-0.1331,-0.1339,-0.1332,-0.1336,-0.1335,-0.1336,-0.1329,-0.1329,-0.1328,-0.1328,0,-0.1076,-0.1086,-0.1101,-0.1119,-0.1132,-0.1147,-0.1164,-0.1169,-0.1196,-0.1206,-0.1223,-0.1235,-0.1258,-0.1275,-0.1295,-0.1309,-0.1323,-0.1326,-0.1326,-0.132,-0.1312,-0.1317,-0.1335,-0.1326,-0.1326,-0.1326,-0.1326,-0.1326,-0.1062,-0.1069,-0.109,-0.1105,-0.112,-0.1135,-0.1144,-0.1161,-0.1175,-0.1196,-0.1209,-0.1225,-0.1245,-0.1274,-0.1286,-0.1299,-0.1305,-0.1306,-0.1306,-0.1306,-0.1304,-0.131,-0.1303,-0.1303,-0.1303,-0.1303,-0.1303,0,-0.1047,-0.1062,-0.1076,-0.1098,-0.1111,-0.1123,-0.1142,-0.1151,-0.1165,-0.1183,-0.1198,-0.1217,-0.1234,-0.1255,-0.1274,-0.128,-0.1287,-0.1284,-0.1284,-0.1286,-0.1298,-0.1296,-0.1278,-0.1278,-0.1278,-0.1278,-0.1278,-0.1278,-0.1041,-0.1054,-0.1066,-0.1086,-0.1101,-0.1117,-0.1126,-0.114,-0.1155,-0.1175,-0.1189,-0.1203,-0.1222,-0.1242,-0.1258,-0.1264,-0.127,-0.1265,-0.1273,-0.1283,-0.1286,-0.1288,-0.1286,-0.1266,-0.1266,-0.1261,-0.1261,-0.1261]}]]